CAPE
0 0 0 0 0 0 0 0 0 0 0 0 0 0 0 0 0 0 0 0 0 0 0 0 0 0 0 0 529 1032 1364 1626 1593 1536 1391 1206 1148 1136 883 589 549 657 652 869 483 451 298 146 30
0 0 0 0 0 0 0 0 0 0 0 0 0 0 0 0 0 0 0 0 0 0 0 0 0 0 0 0 0 106 817 1284 1338 1354 1435 1329 1228 1243 1106 754 551 643 816 906 636 460 401 116 73
0 0 0 0 0 0 0 0 0 0 0 0 0 0 0 0 0 0 0 0 0 0 0 0 0 0 0 0 0 0 19 671 1103 1038 1357 1362 1220 1221 1221 921 622 576 945 946 788 572 422 45 141
0 0 0 0 0 0 0 0 0 0 0 0 0 0 0 0 0 0 0 0 0 0 0 0 0 0 0 0 0 0 0 0 524 824 1031 1337 1320 1264 1252 1113 744 536 1033 951 773 547 442 42 173
0 0 0 0 0 0 0 0 0 0 0 0 0 0 0 0 0 0 0 0 0 0 0 0 0 0 0 0 0 0 0 0 0 258 796 1297 1271 1297 1237 1237 917 582 925 1076 731 771 608 166 165
0 0 0 0 0 0 0 0 0 0 0 0 0 0 0 0 0 0 0 0 0 0 0 0 0 0 0 0 0 0 0 0 0 0 376 793 1122 1192 1267 1200 1084 747 748 1050 903 857 582 236 134
0 0 0 0 0 0 0 0 0 0 0 0 0 0 0 0 0 0 0 0 0 0 0 0 0 0 0 0 0 0 0 0 0 0 10 500 726 938 890 1060 1121 831 724 882 845 790 553 260 127
0 0 0 0 0 0 0 0 0 0 0 0 0 0 0 0 0 0 0 0 0 0 0 0 0 0 0 0 0 0 0 0 0 0 0 182 379 583 704 638 780 689 816 723 834 682 564 279 141
0 0 0 0 0 0 0 0 0 0 0 0 0 0 0 0 0 0 0 0 0 0 0 0 0 0 0 0 0 0 0 0 0 0 0 21 281 385 522 484 431 633 562 674 730 639 566 299 144
0 0 0 0 0 0 0 0 0 0 0 0 0 0 0 0 0 0 0 0 0 0 0 0 0 0 0 0 0 0 0 0 0 0 0 0 210 330 425 396 358 385 448 426 613 563 490 289 143
0 0 0 0 0 0 0 0 0 0 0 0 0 0 0 0 0 0 0 0 0 0 0 0 0 0 0 0 0 0 0 0 0 0 0 0 0 440 396 402 233 259 248 250 397 339 318 271 122
0 0 0 0 0 0 0 0 0 0 0 0 0 0 0 0 0 0 0 0 0 0 0 0 0 0 0 0 0 0 0 0 0 0 0 0 0 138 446 413 383 177 220 226 298 197 201 210 119
0 0 0 0 0 0 0 0 0 0 0 0 0 0 0 0 0 0 0 0 0 0 0 0 0 0 0 0 0 0 0 0 0 0 0 0 0 0 182 385 402 318 272 198 239 207 152 186 134
0 0 0 0 0 0 0 0 0 0 0 0 0 0 0 0 0 0 0 0 0 0 0 0 0 0 0 0 0 0 0 0 0 0 0 0 0 0 0 260 296 399 274 230 224 204 148 162 163
0 0 0 0 0 0 0 0 0 0 0 0 0 0 0 0 0 0 0 0 0 0 0 0 0 0 0 0 0 0 0 0 0 0 0 0 0 0 0 0 282 340 286 282 207 196 177 167 167
0 0 0 0 0 0 0 0 0 0 0 0 0 0 0 0 0 0 0 0 0 0 0 0 0 0 0 0 0 0 0 0 0 0 0 0 0 0 0 0 28 114 309 250 200 222 187 108 122
0 0 0 0 3 0 0 0 0 0 0 0 0 0 0 0 0 0 0 0 0 0 0 0 0 0 0 0 0 0 0 0 0 0 0 0 0 0 0 0 0 117 156 286 204 253 194 150 10
3 1 0 0 0 0 0 0 0 0 0 0 0 0 0 0 0 0 0 0 0 0 0 0 0 0 0 0 0 0 0 0 0 0 0 0 0 0 0 0 0 44 59 36 220 214 137 73 32
0 0 0 0 0 0 0 0 0 0 0 0 0 0 0 0 0 0 0 0 0 0 0 0 0 0 0 0 0 0 0 0 0 0 0 0 0 0 0 0 0 11 105 18 112 130 67 14 1
3 0 0 0 2 0 0 0 0 0 0 0 0 0 0 0 0 0 0 0 0 0 0 0 0 0 0 0 0 0 0 0 0 0 0 0 0 0 0 0 0 0 42 2 68 6 2 1 3
0 0 0 0 0 0 0 0 0 0 0 0 0 0 0 0 0 0 0 0 0 0 0 0 0 0 0 0 0 0 0 0 0 0 0 0 0 0 0 0 0 0 8 2 15 5 0 1 2
0 0 0 0 0 0 0 0 0 0 0 0 0 0 0 0 0 0 0 0 0 0 0 0 0 0 0 0 0 0 0 0 0 0 0 0 0 0 0 0 0 5 2 1 2 1 0 0 1
0 0 0 0 0 0 0 0 0 0 1 0 0 0 0 0 0 0 0 0 0 0 0 0 0 0 0 0 0 0 0 0 0 0 0 0 0 0 0 0 0 56 1 8 1 1 0 0 0
0 0 0 0 0 0 0 0 0 0 0 0 0 0 0 0 0 0 0 0 0 0 0 0 0 0 0 0 0 0 0 0 0 0 0 0 0 0 0 0 0 44 4 0 1 1 0 0 0
0 0 0 0 0 0 0 0 0 0 0 0 0 0 0 0 0 0 0 0 0 0 0 0 0 0 0 0 0 0 0 0 0 0 1 0 0 0 0 0 17 40 1 1 3 3 2 1 0
4 0 0 0 0 0 0 0 0 0 0 0 0 0 0 0 0 0 0 0 0 0 0 0 0 0 0 0 0 0 0 0 0 0 1 1 0 0 0 0 17 63 1 1 3 3 3 2 1
0 0 0 0 0 0 0 0 0 0 0 0 0 0 0 0 0 0 0 0 0 0 0 0 0 1 1 0 1 0 0 1 1 0 0 0 0 0 0 0 0 83 0 1 2 4 3 3 2
0 0 0 0 0 0 0 0 0 0 0 0 0 0 0 0 0 0 0 0 0 0 0 0 0 0 0 1 0 3 2 0 0 4 3 2 0 0 0 0 18 42 1 1 1 3 3 2 3
0 0 0 0 0 1 0 0 0 0 0 0 0 0 0 0 0 0 0 0 0 0 0 0 0 0 0 0 1 3 1 0 2 3 8 2 0 0 0 0 10 13 0 2 3 4 3 3 4
0 0 0 0 0 0 0 0 0 0 0 0 0 0 0 0 0 0 0 0 0 0 0 0 0 0 0 0 0 1 2 1 1 3 3 0 0 0 0 0 27 2 1 2 2 4 4 4 4
CIN
-0 -0 -0 -0 -0 -0 -0 -0 -0 -0 -0 -0 -0 -0 -0 -0 -0 -0 -0 -0 -0 -0 -0 -0 -0 -0 -0 -0 -24 -0 -1 -1 -1 -0 -7 -20 -25 -27 -46 -55 -57 -25 -27 -5 -38 -45 -75 -132 -169
-0 -0 -0 -0 -0 -0 -0 -0 -0 -0 -0 -0 -0 -0 -0 -0 -0 -0 -0 -0 -0 -0 -0 -0 -0 -0 -0 -0 -0 -83 -0 -0 -1 -1 -0 -4 -7 -7 -20 -29 -45 -30 -2 -0 -7 -30 -38 -132 -146
-0 -0 -0 -0 -0 -0 -0 -0 -0 -0 -0 -0 -0 -0 -0 -0 -0 -0 -0 -0 -0 -0 -0 -0 -0 -0 -0 -0 -0 -0 -30 -0 -0 -3 -1 -1 -3 -1 -1 -17 -24 -25 -0 -0 -0 -7 -22 -125 -102
-0 -0 -0 -0 -0 -0 -0 -0 -0 -0 -0 -0 -0 -0 -0 -0 -0 -0 -0 -0 -0 -0 -0 -0 -0 -0 -0 -0 -0 -0 -0 -0 -4 -0 -3 -0 -0 -0 -0 -3 -14 -21 -0 -0 -1 -2 -14 -104 -72
-0 -0 -0 -0 -0 -0 -0 -0 -0 -0 -0 -0 -0 -0 -0 -0 -0 -0 -0 -0 -0 -0 -0 -0 -0 -0 -0 -0 -0 -0 -0 -0 -0 -39 -1 -0 -0 -0 -0 -0 -11 -16 -1 -0 -2 -1 -1 -61 -40
-0 -0 -0 -0 -0 -0 -0 -0 -0 -0 -0 -0 -0 -0 -0 -0 -0 -0 -0 -0 -0 -0 -0 -0 -0 -0 -0 -0 -0 -0 -0 -0 -0 -0 -18 -2 -0 -1 -1 -0 -1 -11 -4 -0 -0 -0 -3 -38 -52
-0 -0 -0 -0 -0 -0 -0 -0 -0 -0 -0 -0 -0 -0 -0 -0 -0 -0 -0 -0 -0 -0 -0 -0 -0 -0 -0 -0 -0 -0 -0 -0 -0 -0 -188 -1 -3 -4 -12 -3 -0 -12 -11 -2 -1 -1 -9 -30 -54
-0 -0 -0 -0 -0 -0 -0 -0 -0 -0 -0 -0 -0 -0 -0 -0 -0 -0 -0 -0 -0 -0 -0 -0 -0 -0 -0 -0 -0 -0 -0 -0 -0 -0 -0 -82 -2 -4 -12 -15 -11 -15 -6 -13 -1 -4 -12 -23 -62
-0 -0 -0 -0 -0 -0 -0 -0 -0 -0 -0 -0 -0 -0 -0 -0 -0 -0 -0 -0 -0 -0 -0 -0 -0 -0 -0 -0 -0 -0 -0 -0 -0 -0 -0 -139 -34 -9 -12 -22 -28 -15 -19 -9 -6 -10 -8 -22 -58
-0 -0 -0 -0 -0 -0 -0 -0 -0 -0 -0 -0 -0 -0 -0 -0 -0 -0 -0 -0 -0 -0 -0 -0 -0 -0 -0 -0 -0 -0 -0 -0 -0 -0 -0 -0 -57 -51 -7 -27 -31 -26 -22 -20 -11 -16 -15 -16 -39
-0 -0 -0 -0 -0 -0 -0 -0 -0 -0 -0 -0 -0 -0 -0 -0 -0 -0 -0 -0 -0 -0 -0 -0 -0 -0 -0 -0 -0 -0 -0 -0 -0 -0 -0 -0 -17 -12 -13 -9 -58 -45 -45 -32 -16 -24 -23 -13 -46
-0 -0 -0 -0 -0 -0 -0 -0 -0 -0 -0 -0 -0 -0 -0 -0 -0 -0 -0 -0 -0 -0 -0 -0 -0 -0 -0 -0 -0 -0 -0 -0 -0 -0 -0 -0 -0 -22 -1 -5 -19 -73 -71 -37 -24 -33 -33 -18 -66
-0 -0 -0 -0 -0 -0 -0 -0 -0 -0 -0 -0 -0 -0 -0 -0 -0 -0 -0 -0 -0 -0 -0 -0 -0 -0 -0 -0 -0 -0 -0 -0 -0 -0 -0 -0 -0 -0 -46 -22 -36 -46 -61 -65 -35 -33 -40 -22 -49
-0 -0 -0 -0 -0 -0 -0 -0 -0 -0 -0 -0 -0 -0 -0 -0 -0 -0 -0 -0 -0 -0 -0 -0 -0 -0 -0 -0 -0 -0 -0 -0 -0 -0 -0 -0 -0 -0 -0 -9 -10 -16 -62 -74 -36 -30 -32 -27 -31
-0 -0 -0 -0 -0 -0 -0 -0 -0 -0 -0 -0 -0 -0 -0 -0 -0 -0 -0 -0 -0 -0 -0 -0 -0 -0 -0 -0 -0 -0 -0 -0 -0 -0 -0 -0 -0 -0 -0 -3 -0 -6 -42 -47 -53 -37 -29 -20 -8
-0 -0 -0 -0 -0 -0 -0 -0 -0 -0 -0 -0 -0 -0 -0 -0 -0 -0 -0 -0 -0 -0 -0 -0 -0 -0 -0 -0 -0 -0 -0 -0 -0 -0 -0 -0 -0 -0 -0 -0 -31 -15 -4 -26 -42 -25 -7 -0 -0
-0 -0 -0 -1 -0 -0 -0 -0 -0 -0 -0 -0 -0 -0 -0 -0 -0 -0 -0 -0 -0 -0 -0 -0 -0 -0 -0 -0 -0 -0 -0 -0 -0 -0 -0 -0 -0 -0 -0 -0 -0 -89 -3 -1 -26 -7 -0 -1 -45
-1 -10 -0 -0 -0 -0 -0 -0 -0 -0 -0 -0 -0 -0 -0 -0 -0 -0 -0 -0 -0 -0 -0 -0 -0 -0 -0 -0 -0 -0 -0 -0 -0 -0 -0 -0 -0 -0 -0 -0 -0 -1 -9 -43 -2 -5 -8 -23 -19
-2 -0 -0 -0 -0 -0 -0 -0 -0 -0 -0 -0 -0 -0 -0 -0 -0 -0 -0 -0 -0 -0 -0 -0 -0 -0 -0 -0 -0 -0 -0 -0 -0 -0 -0 -0 -0 -0 -0 -0 -0 -0 -15 -84 -0 -5 -29 -73 -0
-9 -1 -0 -4 -17 -5 -0 -0 -0 -0 -0 -0 -0 -0 -0 -0 -0 -0 -0 -0 -0 -0 -0 -0 -0 -0 -0 -0 -0 -0 -0 -0 -0 -0 -0 -0 -0 -0 -0 -0 -0 -0 -25 -50 -24 -5 -109 -0 -0
-0 -2 -0 -2 -0 -0 -0 -0 -0 -0 -0 -0 -0 -0 -0 -0 -0 -0 -0 -0 -0 -0 -0 -0 -0 -0 -0 -0 -0 -0 -0 -0 -0 -0 -0 -0 -0 -0 -0 -0 -0 -0 -43 -16 -78 -51 -0 -0 -0
-0 -0 -0 -0 -0 -0 -0 -0 -0 -0 -0 -0 -0 -0 -0 -0 -0 -0 -0 -0 -0 -0 -0 -0 -0 -0 -0 -0 -0 -0 -0 -0 -0 -0 -0 -0 -0 -0 -0 -0 -0 -3 -13 -0 -13 -24 -0 -0 -0
-0 -0 -0 -0 -0 -0 -0 -0 -0 -0 -14 -0 -0 -0 -0 -0 -0 -0 -0 -0 -0 -0 -0 -0 -0 -0 -0 -0 -0 -0 -0 -0 -0 -0 -0 -0 -0 -0 -0 -0 -0 -4 -0 -6 -0 -0 -0 -0 -0
-2 -0 -0 -0 -0 -0 -0 -0 -0 -0 -0 -0 -0 -0 -0 -0 -0 -0 -0 -0 -0 -0 -0 -0 -0 -0 -0 -0 -0 -0 -0 -0 -0 -0 -0 -0 -0 -0 -0 -0 -0 -1 -0 -9 -0 -0 -0 -0 -0
-0 -0 -0 -0 -3 -0 -0 -0 -0 -0 -0 -0 -0 -0 -0 -0 -0 -0 -0 -0 -0 -0 -0 -0 -0 -0 -0 -0 -0 -0 -0 -0 -0 -0 -0 -0 -0 -0 -0 -0 -1 -1 -1 -0 -0 -0 -0 -0 -0
-23 -0 -0 -0 -0 -0 -0 -0 -0 -0 -0 -0 -0 -0 -0 -0 -0 -0 -0 -0 -0 -0 -0 -0 -0 -0 -0 -0 -0 -0 -0 -0 -0 -0 -0 -0 -0 -0 -0 -0 -1 -0 -0 -0 -0 -0 -0 -0 -0
-0 -0 -0 -0 -0 -0 -0 -0 -0 -0 -0 -0 -0 -0 -0 -0 -0 -0 -0 -0 -0 -0 -0 -0 -0 -0 -0 -0 -0 -0 -0 -0 -0 -0 -0 -0 -0 -0 -0 -0 -0 -1 -0 -0 -0 -0 -0 -0 -0
-0 -0 -0 -0 -0 -0 -0 -0 -0 -0 -0 -0 -0 -0 -0 -0 -0 -0 -0 -0 -0 -0 -0 -0 -0 -0 -0 -0 -0 -0 -0 -0 -0 -0 -0 -0 -0 -0 -0 -0 -8 -2 -0 -0 -0 -0 -0 -0 -0
-0 -0 -0 -0 -0 -5 -0 -0 -0 -0 -0 -0 -0 -0 -0 -0 -0 -0 -0 -0 -0 -0 -0 -0 -0 -0 -0 -0 -0 -0 -0 -0 -0 -0 -0 -0 -0 -0 -0 -0 -2 -13 -0 -0 -0 -0 -0 -0 -0
-0 -0 -0 -0 -0 -0 -0 -0 -0 -0 -0 -0 -0 -0 -0 -0 -0 -0 -0 -0 -0 -0 -0 -0 -0 -0 -0 -0 -0 -0 -0 -0 -0 -0 -0 -0 -0 -0 -0 -0 -5 -47 -0 -0 -0 -0 -0 -0 -0
Wind_Speed
30 25 22 21 29 31 45 42 34 38 39 39 31 29 33 36 30 31 14 18 19 20 21 23 24 24 23 23 24 28 22 18 17 16 15 11 10 9 9 9 8 8 7 6 5 4 2 2 2
25 25 19 21 33 43 54 33 37 37 36 36 28 32 36 40 28 15 19 20 20 20 23 23 25 24 24 22 22 24 30 24 20 18 18 15 13 11 11 11 11 10 10 8 6 5 3 2 2
21 18 21 22 32 43 50 35 41 42 34 36 29 28 32 33 19 20 21 21 22 22 22 24 26 26 25 23 23 24 26 32 26 22 20 19 17 15 13 13 13 13 12 11 9 7 5 3 2
21 18 22 29 39 32 35 38 37 41 35 32 33 41 30 24 21 17 20 23 24 26 27 27 28 28 27 26 24 25 26 28 33 27 23 21 20 18 16 15 15 15 15 13 12 11 8 6 4
17 21 29 35 38 34 35 41 46 52 48 35 28 39 36 20 13 19 25 26 28 29 30 30 30 29 30 28 27 26 27 29 31 33 28 25 23 22 20 18 17 18 17 15 14 13 10 8 6
23 21 34 41 41 39 36 34 39 44 40 41 33 36 36 15 21 26 31 33 32 33 32 32 31 32 32 31 30 30 29 30 32 34 36 29 27 25 23 22 20 20 20 18 16 14 13 11 9
26 31 39 41 46 51 43 43 48 46 44 39 33 41 35 22 25 33 36 38 37 37 37 35 34 34 34 35 34 34 32 31 33 35 37 40 32 28 25 24 23 22 22 20 18 16 14 13 11
27 35 43 44 49 56 47 44 39 38 42 36 30 39 39 34 39 38 39 41 42 40 39 38 38 37 36 37 39 36 37 34 35 34 36 40 41 35 30 27 26 25 24 23 21 18 16 15 14
28 38 44 46 46 52 47 44 36 34 40 38 36 41 43 44 45 47 44 44 45 44 43 42 42 42 41 40 40 39 38 38 36 35 35 40 42 39 35 31 29 28 26 25 23 21 19 17 16
29 39 44 43 45 49 49 45 43 45 48 50 48 46 45 44 44 49 52 51 50 49 48 45 45 45 44 42 42 42 41 40 39 37 36 35 40 41 38 36 33 31 29 27 25 23 21 19 19
36 40 46 49 49 49 50 50 47 48 54 50 54 52 49 47 49 51 54 53 51 50 49 48 47 47 47 46 44 43 42 41 40 40 36 37 36 39 39 39 37 37 33 31 28 26 24 22 21
40 42 46 49 47 48 50 50 53 50 54 50 51 51 51 48 48 51 50 52 48 48 50 48 47 47 47 46 46 44 43 43 43 43 41 37 38 38 39 39 37 38 37 35 32 29 27 25 23
41 44 45 46 47 46 47 51 52 54 49 48 47 47 48 47 46 45 45 46 47 48 48 48 47 47 47 47 47 47 46 45 45 45 43 40 40 41 41 43 39 36 36 37 35 32 30 27 25
42 45 45 45 47 49 51 53 49 52 46 46 49 48 45 44 41 43 46 48 48 48 48 46 47 46 46 47 48 48 48 48 47 47 46 45 43 42 43 44 44 38 38 39 36 34 32 31 27
38 45 45 44 48 49 45 50 48 43 44 43 46 46 45 44 44 45 47 49 48 47 46 46 46 47 49 49 49 49 49 48 48 48 46 47 45 44 44 44 43 45 39 40 39 36 33 32 30
43 44 50 44 37 37 36 49 43 39 43 44 46 46 46 48 46 45 44 44 43 40 41 42 44 46 47 48 50 51 51 51 50 50 49 46 46 46 48 48 49 43 44 41 42 39 36 35 33
39 49 48 47 40 43 43 51 50 42 43 46 47 46 47 47 45 42 41 33 35 38 41 44 45 48 49 49 49 50 51 53 53 52 51 49 48 47 47 48 52 53 47 44 43 41 39 36 34
52 51 49 50 45 49 51 53 52 46 44 46 48 46 44 43 44 42 27 29 33 37 41 43 44 45 45 47 49 51 51 52 53 53 51 50 49 48 51 52 50 51 51 48 43 43 41 37 31
46 48 49 46 42 42 41 44 50 47 43 47 47 45 40 37 34 22 24 30 34 37 40 43 45 46 46 48 51 51 53 52 54 54 55 54 53 53 55 54 54 49 48 57 46 43 43 39 33
44 45 46 41 36 38 43 45 48 48 44 39 40 33 24 27 28 27 29 33 36 39 42 45 47 48 48 48 48 50 52 53 54 53 52 52 52 52 54 56 53 51 47 41 47 38 36 38 38
41 43 42 39 38 34 38 46 45 45 44 36 23 22 21 23 26 30 34 39 41 43 44 46 47 48 49 50 50 51 52 55 56 56 56 57 54 54 55 53 53 51 49 45 35 36 31 42 40
44 37 36 33 32 32 31 35 42 44 39 20 16 19 23 28 30 36 41 43 42 43 45 46 48 48 48 47 50 53 55 59 57 55 56 56 55 56 57 58 55 51 49 47 47 42 31 32 37
38 33 32 28 26 22 29 24 34 28 23 22 18 22 30 33 37 43 45 46 44 43 44 44 46 47 46 46 48 52 55 57 56 57 60 57 56 56 56 57 57 51 50 48 44 39 42 45 44
30 30 29 22 18 20 17 27 25 30 29 26 24 30 35 39 44 46 46 46 46 43 44 45 46 47 47 48 48 51 55 57 57 59 60 59 58 56 56 57 56 53 51 50 46 39 40 40 40
27 31 34 28 24 21 33 35 32 38 23 24 27 33 40 45 47 47 48 48 47 44 39 43 45 48 47 49 50 51 54 57 60 59 60 62 60 59 56 56 56 54 51 49 46 41 41 39 37
26 23 25 27 24 28 38 20 25 25 22 23 30 40 44 45 47 47 48 48 47 45 44 44 45 48 48 49 51 51 52 55 59 61 60 61 61 59 56 57 57 54 50 48 46 42 41 38 37
24 21 19 19 16 18 18 28 33 25 27 31 40 45 45 49 48 48 48 47 45 44 43 45 47 49 48 50 50 52 54 54 58 61 62 61 63 57 58 57 58 55 50 48 46 42 42 38 36
14 18 20 17 20 21 23 35 30 35 37 39 43 47 48 48 47 47 45 42 43 45 45 46 46 49 49 48 51 54 53 55 56 58 62 63 62 62 59 55 57 54 51 49 46 43 39 37 34
20 17 14 14 16 20 28 26 33 36 34 40 46 45 47 45 39 36 33 30 23 35 45 46 47 49 51 51 49 51 54 54 55 57 59 61 60 60 61 60 58 55 52 48 46 43 39 37 34
14 14 11 14 19 19 32 34 25 30 42 42 44 46 40 38 32 30 30 33 44 41 48 48 49 49 49 46 47 50 51 51 52 54 56 57 60 57 57 58 56 54 52 49 45 42 41 37 35
Wind_Direction
318 323 321 316 298 292 284 283 293 290 287 286 283 289 282 287 278 274 305 310 309 308 313 318 322 323 321 306 288 268 263 257 256 256 253 242 229 216 213 215 214 217 187 184 171 165 143 86 14
326 322 321 311 292 284 282 292 288 291 295 296 284 281 284 278 288 291 289 306 310 311 311 313 315 320 321 314 300 285 265 261 255 253 252 246 236 224 215 221 220 219 225 219 204 194 194 144 105
328 326 313 306 290 283 287 298 293 291 304 301 284 282 283 281 296 287 296 302 305 310 309 308 310 311 315 314 305 294 280 263 258 253 250 248 240 231 223 218 224 225 228 230 227 225 216 199 166
326 320 311 292 287 283 291 297 298 294 295 294 294 279 287 297 287 295 301 302 300 300 303 302 303 302 305 307 305 297 287 275 263 257 251 246 242 237 232 225 225 226 232 228 231 237 223 218 209
326 316 297 293 287 284 294 296 295 289 289 290 289 280 280 300 305 299 299 301 298 297 299 297 298 297 297 298 300 299 288 278 270 265 253 248 243 239 235 231 228 228 231 230 230 231 226 218 218
318 314 297 292 291 295 295 296 295 291 289 287 279 279 279 279 296 299 299 296 296 294 295 295 294 293 291 291 292 293 291 281 274 268 260 251 245 239 235 234 229 227 230 230 229 228 226 223 217
310 302 295 295 296 296 297 300 295 294 291 292 295 277 281 286 299 298 297 294 293 292 291 292 291 290 289 288 287 287 286 284 277 270 264 255 250 242 235 233 230 227 227 229 228 225 223 224 221
315 304 298 296 297 294 301 299 299 294 288 295 293 284 282 287 294 299 296 291 289 288 289 288 287 287 286 284 283 282 282 281 278 273 268 259 254 249 243 235 233 229 227 227 227 224 220 221 223
316 304 299 299 297 298 302 302 301 304 292 290 287 285 289 292 293 290 292 290 288 286 286 285 284 283 283 283 280 279 278 278 276 274 270 262 254 251 248 240 237 232 228 228 226 223 222 222 225
309 301 301 302 302 302 303 301 299 297 293 288 288 289 291 293 291 289 286 286 286 284 283 283 281 280 280 280 278 277 276 275 272 272 270 267 258 252 249 247 240 235 230 225 226 221 221 221 231
311 298 304 303 303 303 301 297 298 294 288 290 290 291 292 292 289 287 284 283 284 282 282 281 280 279 277 275 275 274 273 272 270 269 270 265 265 254 249 249 246 242 235 233 229 229 227 226 231
307 304 303 304 304 302 298 298 294 293 290 293 293 293 292 290 287 285 283 281 281 282 279 279 278 277 275 274 272 272 271 271 269 267 266 266 261 259 251 249 247 245 241 236 232 231 229 227 229
310 307 305 304 302 301 300 295 294 292 294 295 294 292 290 288 286 284 283 282 281 280 279 278 277 275 274 272 271 270 268 268 267 266 264 263 260 257 256 250 247 246 242 237 233 231 229 227 228
315 310 307 306 305 302 299 296 295 293 298 297 296 293 292 289 289 288 287 285 281 279 279 278 276 275 274 272 270 268 267 267 266 264 262 260 259 257 257 254 249 246 242 239 234 230 229 228 228
316 312 310 306 306 303 301 295 291 296 300 300 301 299 296 294 292 290 288 284 282 280 280 278 276 274 272 270 269 267 265 265 263 263 262 260 258 256 255 256 251 249 246 240 236 233 229 228 229
315 312 310 312 308 306 306 298 298 300 301 300 300 299 295 292 292 290 289 286 283 283 282 282 280 277 275 271 269 267 265 263 262 261 260 260 257 256 255 254 251 250 250 241 236 231 230 228 227
319 314 313 315 317 313 309 303 303 307 304 301 302 300 297 294 292 292 291 290 289 288 285 284 282 278 274 273 270 266 264 262 260 260 258 258 258 257 254 253 252 251 250 244 236 232 230 228 221
323 320 319 317 319 313 305 300 301 304 304 301 300 300 297 294 292 293 294 294 293 291 286 283 281 279 277 274 270 267 264 261 260 257 256 256 256 257 254 253 251 249 244 251 236 230 229 230 227
321 319 317 315 315 312 309 305 302 302 304 302 301 300 300 299 301 307 302 300 298 294 288 284 281 279 278 275 268 266 262 261 258 256 255 255 255 254 252 253 251 252 247 244 249 230 223 227 222
321 321 320 321 323 319 313 308 304 299 303 307 309 313 320 317 307 308 308 306 302 296 292 287 284 280 277 274 271 267 263 261 259 257 256 254 253 253 251 250 252 252 252 243 242 239 215 231 223
325 326 328 326 326 321 317 285 305 294 305 306 320 330 341 333 320 312 307 305 303 297 294 290 286 282 278 275 272 268 265 261 257 256 254 253 253 253 252 252 250 249 248 245 241 242 232 229 228
330 333 328 327 330 327 329 282 281 295 295 320 317 327 331 327 321 314 310 308 310 304 298 290 286 283 280 276 271 266 261 257 256 255 254 253 252 251 251 251 250 247 245 243 243 239 239 230 232
334 340 335 329 321 322 271 325 315 327 334 336 335 322 322 322 316 313 305 304 307 306 302 296 289 283 281 278 272 266 262 259 258 255 253 252 251 250 250 249 248 244 242 242 240 239 239 243 243
340 343 341 336 327 333 341 330 326 316 328 333 328 319 322 318 308 307 309 310 309 313 305 296 289 284 281 277 274 269 263 259 257 253 251 250 250 249 248 247 247 242 240 239 239 238 239 239 242
345 345 345 351 350 337 319 317 315 295 335 337 330 327 316 308 311 314 313 310 311 314 316 301 291 286 283 278 273 270 265 260 256 254 250 249 247 246 246 246 244 240 238 237 237 237 239 237 240
343 347 349 347 347 338 306 346 334 341 345 343 338 311 308 319 321 318 316 315 316 316 310 304 297 290 285 280 275 270 267 262 256 252 250 247 247 245 246 245 243 238 236 236 235 236 239 240 242
350 343 349 342 339 348 351 317 304 345 335 328 316 318 323 321 325 324 323 324 322 320 315 303 297 290 288 282 278 271 266 263 257 252 248 247 245 245 243 243 241 236 233 233 233 235 237 238 242
357 356 356 2 355 350 341 315 321 313 316 314 313 321 324 327 330 333 335 336 330 323 316 304 300 296 293 289 279 271 266 261 258 253 247 244 243 242 242 242 239 233 230 231 231 236 235 236 240
343 348 357 1 354 356 344 336 321 301 321 314 320 326 329 336 348 348 348 348 336 292 306 303 303 299 291 286 281 272 262 259 256 252 247 242 240 239 239 239 238 231 229 229 229 231 231 232 236
352 353 4 358 351 345 314 283 333 332 312 318 319 327 342 350 355 355 353 350 311 302 315 307 310 309 297 291 282 271 261 256 253 249 243 241 237 237 237 236 233 228 226 226 227 229 228 229 232